Regional Weather Roundup
Issued by NWS Newport/Morehead, NC

Current Version | Previous Version | Text Only | Print | Product List | Glossary Off
Versions: 1 2 3 4 5 6 7 8 9 10 11 12 13 14 15 16 17 18 19 20 21 22 23 24 25 26 27 28 29 30 31 32 33 34 35 36 37 38 39 40 41 42 43 44 45 46 47 48 49 50
000 ASUS42 KMHX 251010 RWRMHX WEATHER ROUNDUP FOR EASTERN NORTH CAROLINA NATIONAL WEATHER SERVICE NEWPORT/MOREHEAD CITY NC 600 AM EDT SAT OCT 25 2014 NOTE: "FAIR" INDICATES FEW OR NO CLOUDS BELOW 12,000 FEET WITH NO SIGNIFICANT WEATHER AND/OR OBSTRUCTIONS TO VISIBILITY NCZ015>017-031-032-045>047-102-103-251100- NORTH COAST CITY SKY/WX TMP DP RH WIND PRES REMARKS EDENTON CLEAR 44 43 96 N3 29.97S ELIZABETH CITY CLEAR 50 44 80 W3 29.96R KITTY HAWK SUNNY 55 51 87 W3 29.94R MANTEO CLEAR 49 48 95 CALM 29.95S $$ NCZ045>047-081-094-103-104-251100- CENTRAL COAST CITY SKY/WX TMP DP RH WIND PRES REMARKS FRISCO CLEAR 50 49 96 NW3 29.95S SWANQUARTER N/A 46 N/A N/A NW3 29.91S $$ NCZ095-097-098-100-101-251100- SOUTHERN COAST CITY SKY/WX TMP DP RH WIND PRES REMARKS BEAUFORT CLEAR 50 48 93 CALM 29.96S CEDAR ISLAND N/A 59 N/A N/A NW6 30.00S JACKSONVILLE CLEAR 45 44 97 CALM 29.97R PINEY ISLAND SUNNY 61 50 67 NW8 29.96R WILMINGTON CLEAR 47 45 93 CALM 29.98R $$ NCZ011>013-027>030-043-044-078>080-089-090>093-098-251100- COASTAL PLAIN CITY SKY/WX TMP DP RH WIND PRES REMARKS AHOSKIE CLEAR 39 38 97 CALM 29.98S CLINTON CLEAR 42 42 100 CALM 29.99R ELIZABETHTOWN CLEAR 45 43 92 CALM 29.98R GOLDSBORO CLEAR 45 45 100 CALM 29.97R FOG GREENVILLE SNOW 41 41 100 CALM 29.99R VSB 1/2 HAVELOCK CLEAR 45 43 93 CALM 29.97S KENANSVILLE CLEAR 41 41 99 CALM 29.99R KINSTON CLEAR 42 41 99 CALM 29.99R FOG NEW BERN CLEAR 47 43 86 S3 29.98R RICHLANDS CLEAR 41 37 87 CALM 29.98R ROCKY MOUNT PTCLDY 42 41 96 CALM 29.98R FOG WASHINGTON CLEAR 43 42 97 CALM 29.97R WHITEVILLE CLEAR 47 45 95 CALM 29.98R $$ AMZ130-135-150-152-154-156-158-170-250-252-270-ANZ085-086-088-633-658-670-251100- MARINE OBSERVATIONS STATION/POSITION TIME TEMP WIND PRES WAVE SWELL AIR SEA DIR/SP/G HT/PER HT/PER (UTC) (F) (DEG/KT/KT) (MB) (FT/S) (FT/S) CHESAPEAKE LIGHT 0900 61 350/ 17/ 18 1014.0 64 E VA BEACH 1000 63 66 340/ 12/ 17 1012.7 3/ 5 2/ 8 DUCK 1000 56 65 310/ 5/ 6 1013.2 2 E DUCK 1000 N/A 3/ 9 10 NE DUCK 1000 67 N/A 3/11 2/11 OREGON INLET 1000 56 64 310/ 4/ 5 1013.9 13E OREGON INLT 1000 69 N/A 4/ 9 2/11 HATTERAS CG 1000 62 65 310/ 7/ 8 1014.5 DIAMOND BUOY 1000 64 330/ 10/ 12 1014.2 3/ 9 3/ 9 17 S OCRACOKE NOT AVBL CAPE LOOKOUT 0900 60 340/ 6/ 8 1014.2 BEAUFORT LAB 1000 56 66 320/ 2/ 3 1013.7 30 SE NEW RIVER 1000 67 74 350/ 6/ 8 1014.3 3/10 2/10 5 SE WRIGHTSVLE 1000 60 71 300/ 6/ 6 N/A 225 S CAPE HAT 0910 71 77 20/ 8/ 14 1013.5 4/ 9 3/ 9 41 SE CHARLESTON 1000 69 78 360/ 6/ 10 1014.7 3/10 3/10 $$

USA.gov is the U.S. government's official web portal to all federal, state and local government web resources and services.